CZ-2D DEB

基本信息
目录编号:
38302
目录名称:
CZ-2D DEB
国际标识:
2010-027G
轨道中心:
EARTH
物体状态:
在轨
发射日期:
2010-06-15 UTC
轨道信息
数据来源: 国际轨道数据
星历时间: 2026-09-01T16:11:12+0800
半长轴: 6851.571km
偏心率: 0.0053717
轨道倾角: 97.465°
近地点辐角: 355.792°
升交点赤经: 282.881°
平近点角: 4.286°
近地点: 436.629km
远地点: 510.239km
周期: 94.069分钟
每日圈数: 15.307969
详细信息
发射场:
JSC
轨道高度:
LEO
数据来源:
AOE Integration Group
参考系:
TEME
时间系统:
UTC
历元类型:
SGP4
2D轨道图
3D轨道图
轨道高度分析图
轨道倾角分析图
轨道综合分析图
查看轨道综合分析图